Weather in Zmeyevka

Russia / Perm Krai     57°09′58″N   54°56′06″E
temp.,
°C
wind,
m/s
gust,
m/s
humid.,
%
clouds,
%
prec.,
mm/h
press.,
hPa
HPBL,
m
21 january, fri
fri2123:00−9ssw51392100 0.1 1017463
02:00−9ssw51493100 0.0 1018455
05:00−10ssw51393100 0.0 1019438
08:00−11ssw5129493 0.0 1019359
11:00−12ssw5129496 0.0 1021334
14:00−10ssw41093100 0.0 1021369
17:00−11s389489 0.1 1022238
20:00−14sse279775 0.0 1024135
22 january, sat
sat2223:00−16sse239970 0.1 102442
02:00−17se239968 0.0 102535
05:00−17se219963 0.0 102626
08:00−18se1110081 0.0 102627
11:00−15se239747 0.1 102765
14:00−10sse369191 0.0 1027250
17:00−10ese249697 0.1 102877
20:00−9se279292 0.0 1029212
23 january, sun
sun2323:00−11se2593100 0.0 1030106
02:00−13ese249572 0.0 103167
05:00−15ese2296100 0.0 103234
08:00−13se1293100 0.0 103344
11:00−11se2487100 0.0 103498
14:00−7s2579100 0.0 1036232
17:00−8se2390100 0.0 103659
20:00−10s1196100 0.0 103810
24 january, mon
mon2423:00−10sse1195100 0.0 103917
02:00−9sse1189100 0.0 103942
05:00−9sse1191100 0.0 104029
08:00−9sse1290100 0.0 104045
11:00−9s2386100 0.0 104094
14:00−7sw2378100 0.0 1040189
17:00−10s2293100 0.0 103922
20:00−10ssw2593100 0.0 103992
25 january, tue
tue2523:00−9sw1489100 0.0 1038151
02:00−10sw248985 0.0 1037116
05:00−15ssw1196100 0.0 103715
08:00−16ssw119674 0.0 103718
11:00−14ssw1291100 0.0 103653
14:00−10ssw1381100 0.0 1035178
17:00−12s119499 0.0 103511
20:00−15s229789 0.0 103529